R. Weryk (西オンタリオ大学,物理および天文学科)の通報によると、9月22日UT、HaleakalaのPan-
STARRS1 1.8-m Ritchey-Chretien反射望遠鏡で得た画像から彗星を発見した。
1".2のシーイングで得た、4枚45秒のw-バンドサーベイ画像では、1".3(半値全幅:FWHM)の非常に
集光した頭部が見えるが尾はない。
Werykは、9月13.35日UT、1".0のシーイングで、HaleakalaのPan-STARRS2 1.8-m Ritchey-Chretien反射
望遠鏡で得た、2枚45秒のw-バンドフォローアップ画像では、1".2(FWHM)の非常に集光した頭部が見える
が尾はないと付け加えた。 Werykはまた、2024年7月3.54-3.58日(21.8-22.5等)、7月9.53-5.57日(21.5-
23.3等)、8月6.45-6.48日(21.6-21.7等)、9月6.50日(20.7-20.8等)のPan-STARRS2と、8月13.55-13.57日
(21.4-21.8等)のPan-STARRS1の発見前の小惑星状の観測を同定した。
小惑星センターのPCCP webpageに公表後、佐藤英貴氏(東京都文京区, 9月14.2日UT、CCD露出28枚のスタ
ック, "Deep Sky Chile" 0.51-m f/6.8 アストログラフ, Rio Hurtado, チリ, 遠隔操作: 強く集光した
感じの4"のコマで尾はない。2".2の円形範囲測定した光度は20.6等であった)らCCD観測者によって彗星
状と観測された。
彗星機能の報告は次のとおり、
OC Date Reporter Coma Tail PA Exposures
F52 2024-09-13 R. Weryk 0".2 2x60s
X07 2024-09-14 H. Sato 4" 28x60s
発見位置は次のとおり、
2024 UT R.A. (2000) Decl. Mag.
Sept.11.37094 22 36 03.41 + 8 44 12.8 21.2
11.39265 22 36 02.76 + 8 44 11.7 20.8
11.40594 22 36 02.37 + 8 44 10.9 21.1
11.42163 22 36 01.91 + 8 44 10.1 21.2
11.51632 22 35 59.08 + 8 44 05.1 21.1
11.51698 22 35 59.07 + 8 44 05.1 20.9
MPCの双曲線軌道要素、位置推算表は次のとおり、
Orbital elements:
C/2024 R4 (PANSTARRS)
Epoch 2024 Oct. 17.0 TT = JDT 2460600.5
T 2027 Oct. 26.52908 TT Rudenko
q 4.4115354 (2000.0) P Q
z -0.0006631 Peri. 108.95495 -0.33651608 -0.91003600
+/-0.0000683 Node 345.92951 -0.38058844 +0.36655536
e 1.0029253 Incl. 95.34957 +0.86134161 -0.19357594
From 34 observations 2024 July 3-Sept. 14, mean residual 0".2.
Ephemeris:
Date TT R. A. (2000) Decl. Delta r Elong. Phase m1
2024 08 18 22 47 53.4 +08 54 52 8.7787 9.6964 153.7 2.7 21.1
...
2024 09 02 22 40 40.4 +08 50 58 8.6394 9.6097 163.2 1.7 21.0
...
2024 09 10 22 36 43.8 +08 45 23 8.5937 9.5634 163.5 1.7 21.0
...
2024 09 16 22 33 48.1 +08 39 54 8.5728 9.5286 160.9 2.0 21.0
2024 09 17 22 33 19.2 +08 38 53 8.5704 9.5229 160.3 2.0 21.0
2024 09 18 22 32 50.4 +08 37 52 8.5683 9.5171 159.7 2.1 20.9
...
2024 09 24 22 30 00.5 +08 31 13 8.5621 9.4823 155.2 2.5 20.9
...
2024 10 02 22 26 25.0 +08 21 25 8.5705 9.4360 148.2 3.2 20.9
...
2024 10 17 22 20 30.2 +08 02 03 8.6331 9.3491 133.7 4.4 20.9
(MPEC 2024-S12、CBET 5450)